Regional Weather Roundup
Issued by NWS Goodland, KS

Home | Current Version | Previous Version | Text Only | Print | Product List | Glossary Off
Versions: 1 2 3 4 5 6 7 8 9 10 11 12 13 14 15 16 17 18 19 20 21 22 23 24 25 26 27 28 29 30 31 32 33 34 35 36 37 38 39 40 41 42 43 44 45 46 47 48 49 50

000
ASUS43 KGLD 301959
RWRGLD

GOODLAND FORECAST AREA HOURLY WEATHER ROUNDUP
NATIONAL WEATHER SERVICE GOODLAND KS
200 PM MDT FRI SEP 30 2016

...OFFICIAL OBSERVATIONS...

CITY           SKY/WX    TMP DP  RH WIND       PRES   REMARKS
GOODLAND KS    MOSUNNY   73  46  38 SE20      30.14F
HILL CITY KS   MOSUNNY   70  47  43 SE8       30.18F
IMPERIAL NEB   MOSUNNY   72  45  37 SE15      30.16F
MCCOOK NEB     PTSUNNY   71  48  43 SE13      30.17F
AKRON CO       SUNNY     72  42  34 E12       30.17F
BURLINGTON CO  CLOUDY    71  44  37 SE18      30.15F
LIMON CO       CLOUDY    74  41  30 NW13      30.18F
$$

...UNOFFICIAL OBSERVATIONS...

CITY           SKY/WX    TMP DP  RH WIND       PRES   REMARKS
COLBY KS       SUNNY     75  50  41 SE18G25   30.17F
LENORA KS        N/A     70  32  24 MISG        N/A
NORTON KS      SUNNY     68  39  34 SE8       30.17F
SHARON SPRINGS   N/A     73  51  45 SE17G26     N/A
KIT CARSON CO    N/A     70  46  41 MISG        N/A
$$



USA.gov is the U.S. government's official web portal to all federal, state and local government web resources and services.